Miscellaneous Local Product
Issued by NWS North Platte, NE

Home | Current Version | Previous Version | Text Only | Print | Product List | Glossary On
Versions: 1 2 3 4 5 6 7 8 9 10 11 12 13 14 15 16 17 18 19 20 21 22 23 24 25 26 27 28 29 30 31 32 33 34 35 36 37 38 39 40 41 42 43 44 45 46 47 48 49 50
000
AXUS43 KLBF 282010
MISLBF


WESTERN AND NORTH CENTRAL NEBRASKA HOURLY WEATHER ROUNDUP
NATIONAL WEATHER SERVICE NORTH PLATTE NE
300 PM CDT FRI APR 28 2017

NOTE: "FAIR" INDICATES FEW OR NO CLOUDS BELOW 12,000 FEET WITH NO
SIGNIFICANT WEATHER AND/OR OBSTRUCTIONS TO VISIBILITY.

NOTE: STATIONS NOT REPORTING VARIABLES SUCH AS SKY/WEATHER OR
PRESSURE ARE PROVIDED BY RAWS AND APRS NETWORKS AND ARE NOT UNDER
NATIONAL WEATHER SERVICE QUALITY CONTROL.

...OBSERVATIONS IN AND NEAR THE EASTERN PANHANDLE OF NEBRASKA...

CITY           SKY/WX    TMP DP  RH WIND       PRES   REMARKS
PINE RIDGE     CLOUDY    43  30  60 NE17G23   29.94R
CHADRON        CLOUDY    41  33  73 E9        29.94R
ALLIANCE       LGT SNOW  34  31  88 E21       29.89R VSB 1   WCI  22
SIDNEY         LGT SNOW  34  31  88 E20G26    29.84R FOG     WCI  23
CRESCENT LAKE    N/A     34  32  94 E16G28      N/A  WCI  24
$$

...OBSERVATIONS IN NORTHERN NEBRASKA AND FAR SOUTHERN SOUTH DAKOTA...

CITY           SKY/WX    TMP DP  RH WIND       PRES   REMARKS
WINNER         FAIR      52  27  38 NE13G21   29.97R
VALENTINE      CLOUDY    46  26  45 NE17G24   29.95R
THEDFORD       CLOUDY    39  35  87 E14G20    29.91S WCI  31
AINSWORTH      CLOUDY    43  32  64 NE13G22   29.94R
O`NEILL        CLOUDY    44  28  54 NE12      29.93R
ORD            LGT RAIN  38  34  85 NE18      29.89R WCI  28
BROKEN BOW     CLOUDY    37  35  92 NE20G28   29.88R WCI  27
VALENTINE NWR    N/A     39  29  69 E14         N/A  WCI  31
HALSEY           N/A     35  34  98 NE7G16      N/A  WCI  29
BUTTE            N/A     44  28  53 N14G22      N/A
CHAMBERS         N/A     38  33  84 MISG        N/A
EWING            N/A     38  34  87 NE7         N/A  WCI  33
$$

...OBSERVATIONS IN SOUTHWEST NEBRASKA AND FAR NORTHEAST COLORADO...

CITY           SKY/WX    TMP DP  RH WIND       PRES   REMARKS
HOLYOKE        CLOUDY    37  34  87 E17       29.82R WCI  28
IMPERIAL       CLOUDY    39  34  82 E22       29.82R WCI  29
OGALLALA       CLOUDY    37  35  92 E17G25    29.87R WCI  27
NORTH PLATTE   CLOUDY    38  34  85 NE23G32   29.87R WCI  27
MCCOOK         CLOUDY    39  36  89 NE22      29.82R WCI  29
LEXINGTON      CLOUDY    37  34  89 NE21      29.85R WCI  26
STAPLETON        N/A     34  32  93 E9G20       N/A  WCI  26
GOTHENBURG       N/A     36  33  88 NE10        N/A  WCI  28
CALLAWAY         N/A     34  32  93 NE17        N/A  WCI  23
$$

...OBSERVATIONS IN CENTRAL LINCOLN COUNTY AREA...

CITY           SKY/WX    TMP DP  RH WIND       PRES   REMARKS
N.P. AIRPORT   CLOUDY    38  34  85 NE23G32   29.87R WCI  27
N.P. DOWNTOWN    N/A     35  34  95 NE17G24     N/A  WCI  25
N.P. SOUTHEAST   N/A     35  33  91 NE12G18     N/A  WCI  27
N.P. HILLCREST   N/A     35  34  96 E22G32      N/A  WCI  23
$$

...SOME OBSERVATIONS FROM AROUND THE REGION...

CITY           SKY/WX    TMP DP  RH WIND       PRES   REMARKS
DENVER         PTSUNNY   50  23  34 E22G30    29.69R
LIMON          CLOUDY    53  27  36 E13G21    29.69R
ASPEN          CLOUDY    36  23  59 N9G17     29.72S WCI  29
LARAMIE        CLOUDY    34  23  64 N14       29.73R WCI  25
CASPER         FLURRIES  33  29  85 E25G37    29.88R WCI  20
CHEYENNE       LGT RAIN  37  29  72 NE20G28   29.74R WCI  27
SCOTTSBLUFF    LGT SNOW  34  31  88 E15       29.89R FOG     WCI  24
GRAND ISLAND   LGT RAIN  37  37 100 NE22      29.85R FOG     WCI  26
OMAHA          DRIZZLE   41  36  82 NE12      29.85R
SIOUX FALLS    CLOUDY    48  33  56 NE14      29.95R
PIERRE         CLOUDY    52  24  33 NE18      29.97R
RAPID CITY     CLOUDY    46  27  47 NE14G22   29.99R
BISMARCK       SUNNY     56  11  16 N15       30.05R
KANSAS CITY    DRZL/FOG  55  54  96 N12       29.70R VSB 1/4
HILL CITY      CLOUDY    47  42  83 N21       29.77R
WICHITA        MOSUNNY   71  47  42 W6        29.65R
DODGE CITY     MOSUNNY   65  37  35 N8        29.69R
OKLAHOMA CITY  CLOUDY    75  55  49 N8        29.62S
DALLAS         PTSUNNY   88  68  51 S14G22    29.58F HX  91
AMARILLO       CLOUDY    71  38  29 S14       29.64S
$$




USA.gov is the U.S. government's official web portal to all federal, state and local government web resources and services.